sat.trackr.live / text

‹ back to catalog

KUIPER-00375

NORAD 68868 · 2026-095E

PAYLOAD ACTIVE UNKNOWN

§ Identity

Operator
Country
US
Launch date
2026-04-28
Launch site
AFETR
Launch vehicle
Mass (kg)
RCS (m²)

External: N2YO · Heavens-Above · Gunter

§ Orbital elements

Epoch: 2026-05-24T23:48:55.576224Z

Period
93.58 min
Inclination
51.8849°
Eccentricity
0.0001431
Mean motion
15.38744475 rev/d
Perigee alt
448.8 km
Apogee alt
450.8 km
Semi-major
6,828.0 km
B*
7.2759e-4
RAAN
354.3395°
Arg perigee
219.6202°
Mean anomaly
140.4681°
Rev number
416

§ Raw data

KUIPER-003751 68868U 26095E   26144.99230991  .00028014  00000+0  72759-3 0  99942 68868  51.8849 354.3395 0001431 219.6202 140.4681 15.38744475  4169

JSON: /api/v1/satellites/68868 · /tle

For live sub-satellite position, see the globe view (requires WebGL).

§ Visibility from observer

Set your observer location to see the next 7 days of passes ≥ 10°. The values pass through the URL so the page stays shareable.

No JS? Fill the form by hand. The geolocation button needs JavaScript.